CZ-6A DEB, 61322

Orbit data source: Space-Track

CZ-6A DEB, 61322 is space debris in LEO originally from a launch on Tue, 06 Aug 2024 UTC launched from the Taiyaun Space Center, China (TSC). Debris objects in space refer to the collection of defunct objects orbiting the Earth. Examples of debris include non-operational satellites, rocket bodies, and fragments generated from explosions, collisions, or faulty payload assembly.

Loading next visibility...
Identifier
61322, 2024-140UK
Orbit
LEO
Country
Flag of CNCN / PRC
Related business
Manufacturer
SAST
Mission
Spacecraft
Bus & Motor
Unknown
Mass
Unknown
Launch date (UTC)
2024-08-06 (2 years ago)
Launch vehicle
Unknown
Launch site
Taiyaun Space Center, China (TSC)
Object type
Payload
Rocket body
Debris
Shape & HBR
Unknown shape, 0.1 m
Radar Cross Section
Small (<0.1 m²)

Expand to show TLE details & history
Last TLE update: 19 hours ago

TLE from 19 hours ago
0 CZ-6A DEB
1 61322U 24140UK  26171.19370850  .00003692  00000-0  59694-3 0  9991
2 61322  88.8803 259.1787 0109424 246.2721 112.6986 14.67184100 95643
Epoch: 2026-06-20T04:38Z
TLE epoch observation values (Epoch: 2026-06-20T04:38:56.414Z)
Latitude
-0.00007°
Longitude
-78.9682°
Altitude
703.673 km
Speed
7.488 km/s
True Right ascension
17h 16m 42s
True Declination
0° 00' 00"
Sunlit
Object was in full shadow at epoch
Visualization orbit readout
Latitude
Unknown
Longitude
Unknown
Altitude
Unknown
Speed
Unknown
Apparent Right ascension
Unknown
Apparent Declination
Unknown
Sunlit
N/A
Visualization observer readout
Local Sidereal Time
10:17:09
Azimuth
Unknown
Elevation
Unknown
Doppler factor
Unknown
Orbital elements
Apogee altitude
744.046 km
Perigee altitude
589.866 km
Semi-major axis
7,045.093 km
Eccentricity
0.01094
Inclination
88.8803°
RAAN
259.1787°
Arg. of periapsis
246.2721°
True anomaly
113.84924°
Mean anomaly
112.6986°
Eccentric anomaly
113.27453°
Mean motion
3.6704 °/min
Orbital period
98.08 mins
BSTAR
0.00059694
Loading maneuver chart data...
Computing Atmospheric mass density...
Loading historical data...
Loading historical data...
Loading historical data...
Loading historical data...
Loading historical data...
Loading historical data...
Loading historical data...

Documentation

Showing up to 5 results
|